Tracking 26544 objects as of 9-Dec-2022
HD Live streaming from Space Station
objects crossing your sky now

STARLINK-4575

Track STARLINK-4575 now!
10-day predictions
STARLINK-4575 is classified as:


NORAD ID: 53565
Int'l Code: 2022-101AQ
Perigee: 545.6 km
Apogee: 548.1 km
Inclination: 53.2 °
Period: 95.4 minutes
Semi major axis: 6917 km
RCS: Unknown
Launch date: August 19, 2022
Source: United States (US)
Launch site: AIR FORCE EASTERN TEST RANGE (AFETR)
aabbcc
Your satellite tracking list
Your tracking list is empty




NASA's NSSDC Master Catalog

Two Line Element Set (TLE):
1 53565U 22101AQ  22342.73721326  .00001411  00000-0  10670-3 0  9998
2 53565  53.2170 342.6926 0001794  46.2215 313.8926 15.08844288 17915
Source of the keplerian elements: AFSPC